period_start,C,m1,H,J0,J1,J2,J3,J4,J5,JA,JB,JC,JD,JJ,JK,JN,#
2017-05-14 00:00:54,0.02,1.40,0.00,24.32,26.87,30.21,14.34,48.48,1013.57,2031.00,2942.11,2714.00,3114.04,599.77,591.51,18.58,0000 0000 0000 0000 000000
2017-05-14 00:05:56,0.01,1.40,0.00,24.31,26.90,30.19,14.38,48.55,1013.32,2031.00,2941.86,2713.87,3113.91,599.96,591.44,18.63,0000 0000 0000 0000 000000
2017-05-14 00:10:57,0.05,1.40,0.00,24.34,26.90,30.20,14.39,48.58,1013.26,2031.00,2941.10,2713.15,3113.19,600.20,591.55,18.68,0000 0000 0000 0000 000000
2017-05-14 00:15:58,0.01,1.40,0.00,24.34,26.91,30.21,14.39,48.57,1013.22,2031.00,2940.79,2713.00,3112.99,599.97,591.35,18.73,0000 0000 0000 0000 000000
2017-05-14 00:20:59,0.04,1.41,0.00,24.32,26.92,30.23,14.33,48.56,1013.20,2031.00,2940.04,2712.67,3112.43,599.81,591.21,18.78,0000 0000 0000 0000 000000
2017-05-14 00:26:00,0.02,1.41,0.00,24.35,26.93,30.25,14.38,48.65,1013.20,2031.00,2939.84,2712.07,3112.00,599.95,591.16,18.83,0000 0000 0000 0000 000000
2017-05-14 00:31:01,0.05,1.41,0.00,24.37,26.95,30.22,14.38,48.57,1013.16,2031.00,2938.83,2711.72,3111.45,600.03,591.29,18.88,0000 0000 0000 0000 000000
2017-05-14 00:36:03,0.06,1.41,0.00,24.33,26.96,30.20,14.34,48.62,1013.20,2030.98,2937.28,2710.97,3110.14,599.66,591.07,18.93,0000 0000 0000 0000 000000
2017-05-14 00:41:04,0.03,1.41,0.00,24.34,26.97,30.21,14.42,48.65,1013.20,2030.96,2936.82,2710.17,3109.90,600.10,591.50,18.98,0000 0000 0000 0000 000000
2017-05-14 00:46:05,0.02,1.42,0.00,24.34,26.98,30.20,14.27,48.58,1013.19,2030.91,2936.04,2709.99,3109.11,599.59,590.90,19.03,0000 0000 0000 0000 000000
2017-05-14 00:51:06,0.03,1.42,0.00,24.40,27.00,30.20,14.26,48.67,1013.20,2030.86,2935.47,2709.42,3108.87,599.77,591.01,19.08,0000 0000 0000 0000 000000
2017-05-14 00:56:07,-0.01,1.42,0.00,24.36,27.00,30.22,14.40,48.67,1013.20,2030.44,2934.92,2709.00,3108.08,599.90,591.25,19.13,0000 0000 0000 0000 000000
2017-05-14 01:01:09,0.02,1.42,0.00,24.33,27.02,30.22,14.35,48.67,1013.16,2030.19,2934.12,2708.73,3107.83,600.05,591.53,19.18,0000 0000 0000 0000 000000
2017-05-14 01:06:10,0.03,1.42,0.00,24.33,27.02,30.22,14.29,48.61,1012.96,2030.07,2933.67,2708.05,3107.08,599.74,591.07,19.23,0000 0000 0000 0000 000000
2017-05-14 01:11:11,0.01,1.42,0.00,24.33,27.04,30.23,14.39,48.67,1012.74,2030.10,2932.92,2707.95,3106.86,600.17,591.32,19.28,0000 0000 0000 0000 000000
2017-05-14 01:16:12,0.05,1.42,0.00,24.38,27.05,30.23,14.43,48.72,1012.73,2030.07,2932.08,2707.21,3106.08,599.99,590.95,19.33,0000 0000 0000 0000 000000
2017-05-14 01:21:13,0.03,1.42,0.00,24.37,27.06,30.24,14.29,48.56,1012.74,2030.03,2931.20,2706.93,3105.47,599.77,590.88,19.38,0000 0000 0000 0000 000000
2017-05-14 01:26:15,0.04,1.43,0.00,24.34,27.07,30.25,14.23,48.63,1012.73,2030.01,2930.70,2706.21,3105.01,599.79,590.90,19.43,0000 0000 0000 0000 000000
2017-05-14 01:31:16,0.06,1.43,0.00,24.32,27.07,30.27,14.37,48.78,1012.72,2030.00,2929.65,2705.69,3104.31,600.05,591.21,19.48,0000 0000 0000 0000 000000
2017-05-14 01:36:18,0.05,1.43,0.00,24.37,27.09,30.26,14.30,48.73,1012.72,2030.01,2928.36,2704.92,3103.29,599.76,590.76,19.53,0000 0000 0000 0000 000000
2017-05-14 01:41:19,0.07,1.44,0.00,24.36,27.10,30.25,14.41,48.82,1012.71,2030.00,2926.94,2704.02,3102.25,600.20,591.11,19.58,0000 0000 0000 0000 000000
2017-05-14 01:46:20,0.10,1.44,0.00,24.35,27.10,30.26,14.40,48.73,1012.71,2030.00,2925.25,2702.91,3101.06,600.28,591.22,19.63,0000 0000 0000 0000 000000
2017-05-14 01:51:22,0.11,1.44,0.00,24.31,27.12,30.27,14.41,48.78,1012.71,2030.00,2923.15,2701.60,3099.51,599.81,591.00,19.68,0000 0000 0000 0000 000000
2017-05-14 01:56:23,0.06,1.45,0.00,24.32,27.12,30.26,14.38,48.73,1012.71,2030.00,2921.71,2700.73,3098.39,600.06,591.10,19.73,0000 0000 0000 0000 000000
2017-05-14 02:01:24,0.05,1.45,0.00,24.38,27.12,30.27,14.24,48.76,1012.58,2030.00,2920.72,2700.03,3097.67,599.89,590.82,19.78,0000 0000 0000 0000 000000
2017-05-14 02:06:25,0.06,1.45,0.00,24.24,27.12,30.28,14.40,48.79,1012.41,2030.00,2919.66,2699.35,3096.76,600.07,591.25,19.83,0000 0000 0000 0000 000000
2017-05-14 02:11:26,0.02,1.46,0.00,24.32,27.13,30.28,14.29,48.81,1012.27,2030.00,2918.85,2698.95,3096.03,599.56,590.32,19.88,0000 0000 0000 0000 000000
2017-05-14 02:16:28,0.05,1.46,0.00,24.29,27.14,30.29,14.30,48.71,1012.26,2030.00,2918.03,2698.15,3095.54,599.84,590.78,19.93,0000 0000 0000 0000 000000
2017-05-14 02:21:29,0.03,1.46,0.00,24.30,27.14,30.27,14.31,48.73,1012.23,2030.00,2917.16,2697.87,3094.92,600.05,590.86,19.99,0000 0000 0000 0000 000000
2017-05-14 02:26:30,0.05,1.46,0.00,24.27,27.15,30.28,14.33,48.71,1012.24,2030.00,2916.38,2697.14,3094.11,599.78,590.80,20.04,0000 0000 0000 0000 000000
2017-05-14 02:31:31,0.00,1.47,0.00,24.31,27.14,30.28,14.31,48.71,1012.22,2030.00,2915.87,2697.00,3093.92,600.06,590.97,20.09,0000 0000 0000 0000 000000
2017-05-14 02:36:32,0.04,1.47,0.00,24.28,27.14,30.27,14.37,48.69,1012.20,2030.00,2915.08,2696.77,3093.17,599.89,590.87,20.14,0000 0000 0000 0000 000000
2017-05-14 02:41:34,0.03,1.47,0.00,24.21,27.14,30.25,14.36,48.68,1012.09,2030.00,2914.50,2696.07,3092.98,599.91,590.87,20.19,0000 0000 0000 0000 000000
2017-05-14 02:46:35,0.01,1.47,0.00,24.26,27.13,30.25,14.40,48.69,1011.97,2029.99,2914.00,2696.00,3092.29,600.15,590.95,20.24,0000 0000 0000 0000 000000
2017-05-14 02:51:36,0.03,1.47,0.00,24.26,27.12,30.26,14.28,48.67,1011.85,2029.99,2913.24,2695.77,3091.98,599.71,590.42,20.29,0000 0000 0000 0000 000000
2017-05-14 02:56:38,0.04,1.47,0.00,24.22,27.12,30.27,14.31,48.67,1011.94,2029.99,2912.76,2695.06,3091.28,600.09,591.01,20.34,0000 0000 0000 0000 000000
2017-05-14 03:01:39,0.01,1.47,0.00,24.17,27.12,30.26,14.40,48.79,1011.80,2029.99,2912.03,2694.99,3091.00,600.13,590.94,20.39,0000 0000 0000 0000 000000
2017-05-14 03:06:40,0.03,1.48,0.00,24.27,27.11,30.24,14.32,48.66,1011.76,2029.99,2911.54,2694.76,3090.53,599.94,590.59,20.44,0000 0000 0000 0000 000000
2017-05-14 03:11:41,0.02,1.48,0.00,24.25,27.10,30.24,14.33,48.77,1011.74,2029.99,2910.92,2694.07,3090.01,599.72,590.39,20.49,0000 0000 0000 0000 000000
2017-05-14 03:16:43,0.02,1.48,0.00,24.26,27.10,30.23,14.36,48.77,1011.74,2029.99,2910.12,2694.00,3089.66,599.76,590.43,20.54,0000 0000 0000 0000 000000
2017-05-14 03:21:44,0.02,1.48,0.00,24.29,27.10,30.21,14.30,48.68,1011.73,2029.99,2909.70,2693.88,3089.02,600.12,590.72,20.59,0000 0000 0000 0000 000000
2017-05-14 03:26:46,0.04,1.48,0.00,24.15,27.08,30.21,14.34,48.70,1011.73,2030.00,2908.96,2693.12,3088.69,599.99,590.88,20.64,0000 0000 0000 0000 000000
2017-05-14 03:31:47,0.02,1.48,0.00,24.19,27.07,30.21,14.43,48.75,1011.73,2030.00,2908.13,2692.99,3088.03,599.97,590.92,20.69,0000 0000 0000 0000 000000
2017-05-14 03:36:48,0.03,1.49,0.00,24.22,27.07,30.21,14.37,48.68,1011.73,2030.00,2907.48,2692.72,3087.68,600.17,590.91,20.74,0000 0000 0000 0000 000000
2017-05-14 03:41:49,0.02,1.49,0.00,24.18,27.07,30.19,14.27,48.74,1011.67,2030.00,2906.97,2692.06,3087.02,600.08,590.86,20.79,0000 0000 0000 0000 000000
2017-05-14 03:46:50,0.03,1.49,0.00,24.17,27.06,30.20,14.41,48.81,1011.40,2030.01,2906.18,2692.00,3086.63,600.36,591.01,20.84,0000 0000 0000 0000 000000
2017-05-14 03:51:52,0.04,1.49,0.00,24.15,27.05,30.17,14.39,48.88,1011.37,2030.00,2905.36,2691.71,3086.00,600.38,591.10,20.89,0000 0000 0000 0000 000000
2017-05-14 03:56:53,0.03,1.49,0.00,24.23,27.05,30.19,14.38,48.86,1011.39,2030.00,2904.85,2691.07,3085.43,599.89,590.63,20.94,0000 0000 0000 0000 000000
2017-05-14 04:01:54,0.01,1.49,0.00,24.18,27.05,30.18,14.25,48.83,1011.27,2030.00,2904.07,2690.99,3084.97,600.29,590.85,20.99,0000 0000 0000 0000 000000
2017-05-14 04:06:56,0.05,1.50,0.00,24.18,27.05,30.19,14.31,48.84,1011.26,2030.00,2903.36,2690.57,3084.26,599.82,590.37,21.04,0000 0000 0000 0000 000000
2017-05-14 04:11:57,0.02,1.50,0.00,24.14,27.05,30.18,14.38,48.84,1011.25,2030.00,2902.80,2690.04,3083.97,600.26,590.81,21.09,0000 0000 0000 0000 000000
2017-05-14 04:16:58,0.03,1.50,0.00,24.17,27.05,30.19,14.36,48.86,1011.24,2030.00,2902.03,2689.98,3083.17,600.14,590.54,21.14,0000 0000 0000 0000 000000
2017-05-14 04:21:59,0.04,1.50,0.00,24.19,27.05,30.18,14.25,48.84,1011.13,2030.00,2901.25,2689.49,3082.89,599.51,589.96,21.19,0000 0000 0000 0000 000000
2017-05-14 04:27:01,0.03,1.50,0.00,24.17,27.05,30.18,14.30,48.89,1011.09,2030.00,2900.57,2689.02,3082.10,600.11,590.58,21.24,0000 0000 0000 0000 000000
2017-05-14 04:32:02,0.02,1.50,0.00,24.16,27.05,30.18,14.40,48.97,1010.79,2030.00,2899.82,2688.98,3081.73,600.06,590.35,21.29,0000 0000 0000 0000 000000
2017-05-14 04:37:04,0.04,1.51,0.00,24.25,27.05,30.17,14.38,48.83,1010.89,2030.00,2899.04,2688.42,3081.03,600.03,590.22,21.34,0000 0000 0000 0000 000000
2017-05-14 04:42:05,0.04,1.51,0.00,24.21,27.05,30.19,14.31,48.84,1010.78,2030.00,2898.31,2688.01,3080.51,599.85,590.10,21.39,0000 0000 0000 0000 000000
2017-05-14 04:47:07,0.01,1.51,0.00,24.20,27.05,30.18,14.35,48.77,1010.76,2030.00,2897.59,2687.90,3079.97,599.90,590.19,21.44,0000 0000 0000 0000 000000
2017-05-14 04:52:08,0.04,1.51,0.00,24.20,27.05,30.18,14.45,48.86,1010.76,2030.00,2896.95,2687.19,3079.18,600.17,590.44,21.49,0000 0000 0000 0000 000000
2017-05-14 04:57:09,0.02,1.51,0.00,24.23,27.05,30.18,14.32,48.78,1010.76,2030.00,2896.14,2687.02,3078.94,599.84,589.98,21.54,0000 0000 0000 0000 000000
2017-05-14 05:02:10,0.03,1.52,0.00,24.21,27.04,30.18,14.36,48.81,1010.77,2030.01,2895.46,2686.99,3078.22,600.13,590.31,21.59,0000 0000 0000 0000 000000
2017-05-14 05:07:12,0.04,1.52,0.00,24.23,27.04,30.19,14.34,48.67,1010.76,2030.00,2894.71,2686.58,3077.74,599.66,589.81,21.64,0000 0000 0000 0000 000000
2017-05-14 05:12:13,0.02,1.52,0.00,24.22,27.04,30.19,14.31,48.65,1010.73,2030.00,2894.02,2686.03,3077.05,599.77,589.95,21.69,0000 0000 0000 0000 000000
2017-05-14 05:17:14,0.03,1.52,0.00,24.24,27.04,30.19,14.41,48.77,1010.72,2030.00,2893.29,2685.98,3076.64,600.11,590.22,21.74,0000 0000 0000 0000 000000
2017-05-14 05:22:16,0.04,1.52,0.00,24.24,27.04,30.20,14.37,48.65,1010.57,2030.00,2892.48,2685.54,3076.00,600.19,590.25,21.79,0000 0000 0000 0000 000000
2017-05-14 05:27:17,0.03,1.52,0.00,24.25,27.04,30.20,14.25,48.59,1010.43,2030.00,2891.80,2685.02,3075.29,599.84,589.56,21.84,0000 0000 0000 0000 000000
2017-05-14 05:32:18,0.01,1.53,0.00,24.26,27.04,30.21,14.26,48.60,1010.33,2030.00,2891.00,2684.98,3074.97,600.01,589.79,21.89,0000 0000 0000 0000 000000
2017-05-14 05:37:20,0.06,1.53,0.00,24.27,27.05,30.21,14.26,48.66,1010.28,2030.00,2890.16,2684.45,3074.17,599.83,589.63,21.94,0000 0000 0000 0000 000000
2017-05-14 05:42:21,0.03,1.53,0.00,24.29,27.05,30.22,14.37,48.66,1010.27,2030.00,2889.43,2684.01,3073.74,599.91,589.64,21.99,0000 0000 0000 0000 000000
2017-05-14 05:47:23,0.02,1.53,0.00,24.30,27.05,30.22,14.24,48.60,1010.27,2030.00,2888.64,2683.89,3073.03,599.74,589.52,22.04,0000 0000 0000 0000 000000
2017-05-14 05:52:24,0.05,1.53,0.00,24.33,27.05,30.22,14.37,48.73,1010.27,2030.00,2887.93,2683.18,3072.41,600.24,589.90,22.09,0000 0000 0000 0000 000000
2017-05-14 05:57:25,0.02,1.54,0.00,24.37,27.05,30.22,14.36,48.64,1010.22,2030.00,2887.13,2683.00,3071.98,600.06,589.63,22.14,0000 0000 0000 0000 000000
2017-05-14 06:02:27,0.03,1.54,0.00,24.36,27.05,30.21,14.29,48.74,1010.13,2030.00,2886.35,2682.94,3071.22,599.99,589.57,22.19,0000 0000 0000 0000 000000
2017-05-14 06:07:28,0.04,1.54,0.00,24.37,27.07,30.23,14.37,48.71,1009.85,2030.00,2885.71,2682.29,3070.93,600.24,589.62,22.24,0000 0000 0000 0000 000000
2017-05-14 06:12:29,0.02,1.54,0.00,24.37,27.07,30.23,14.32,48.55,1009.80,2030.00,2884.96,2682.00,3070.16,599.92,589.24,22.29,0000 0000 0000 0000 000000
2017-05-14 06:17:30,0.03,1.54,0.00,24.38,27.07,30.24,14.30,48.67,1009.82,2030.00,2884.11,2681.87,3069.75,599.83,589.08,22.34,0000 0000 0000 0000 000000
2017-05-14 06:22:32,0.05,1.54,0.00,24.39,27.07,30.25,14.34,48.68,1009.80,2030.00,2883.46,2681.15,3069.04,599.96,589.19,22.39,0000 0000 0000 0000 000000
2017-05-14 06:27:33,0.03,1.55,0.00,24.36,27.08,30.26,14.29,48.54,1009.79,2030.00,2882.68,2681.00,3068.40,600.27,589.46,22.44,0000 0000 0000 0000 000000
2017-05-14 06:32:35,0.05,1.55,0.00,24.37,27.09,30.26,14.33,48.63,1009.78,2030.00,2881.73,2680.50,3067.88,600.00,589.30,22.49,0000 0000 0000 0000 000000
2017-05-14 06:37:36,0.02,1.55,0.00,24.40,27.10,30.26,14.33,48.67,1009.78,2030.00,2880.96,2680.02,3067.12,600.05,589.14,22.54,0000 0000 0000 0000 000000
2017-05-14 06:42:37,0.03,1.55,0.00,24.41,27.10,30.27,14.34,48.59,1009.77,2030.00,2880.13,2679.98,3066.61,599.98,589.23,22.59,0000 0000 0000 0000 000000
2017-05-14 06:47:38,0.05,1.55,0.00,24.39,27.10,30.28,14.35,48.71,1009.78,2030.00,2879.43,2679.29,3065.97,600.26,589.48,22.64,0000 0000 0000 0000 000000
2017-05-14 06:52:39,0.02,1.56,0.00,24.40,27.10,30.27,14.32,48.61,1009.77,2030.00,2878.77,2679.00,3065.21,600.07,589.31,22.69,0000 0000 0000 0000 000000
2017-05-14 06:57:41,0.03,1.56,0.00,24.40,27.10,30.28,14.27,48.67,1009.74,2029.99,2878.01,2678.71,3064.82,599.77,589.01,22.74,0000 0000 0000 0000 000000
2017-05-14 07:02:42,0.04,1.56,0.00,24.42,27.12,30.30,14.32,48.73,1009.54,2029.99,2877.19,2678.06,3064.07,599.93,588.94,22.79,0000 0000 0000 0000 000000
2017-05-14 07:07:43,0.03,1.56,0.00,24.44,27.12,30.29,14.39,48.72,1009.59,2029.99,2876.44,2677.98,3063.58,600.45,589.47,22.84,0000 0000 0000 0000 000000
2017-05-14 07:12:44,0.04,1.56,0.00,24.43,27.12,30.29,14.32,48.70,1009.57,2029.97,2875.74,2677.34,3062.98,600.18,589.23,22.89,0000 0000 0000 0000 000000
2017-05-14 07:17:46,0.03,1.57,0.00,24.42,27.12,30.31,14.24,48.69,1009.48,2029.98,2874.98,2677.00,3062.21,599.68,588.79,22.94,0000 0000 0000 0000 000000
2017-05-14 07:22:47,0.02,1.57,0.00,24.43,27.12,30.31,14.32,48.76,1009.34,2029.97,2874.13,2676.88,3061.93,600.16,589.04,22.99,0000 0000 0000 0000 000000
2017-05-14 07:27:49,0.05,1.57,0.00,24.44,27.12,30.32,14.38,48.69,1009.32,2029.98,2873.56,2676.19,3061.13,600.24,589.14,23.04,0000 0000 0000 0000 000000
2017-05-14 07:32:51,0.02,1.57,0.00,24.43,27.13,30.32,14.26,48.66,1009.30,2029.98,2872.80,2675.99,3060.71,599.89,588.84,23.09,0000 0000 0000 0000 000000
2017-05-14 07:37:52,0.03,1.57,0.00,24.43,27.14,30.31,14.27,48.80,1009.29,2029.97,2872.05,2675.70,3060.03,600.10,589.01,23.14,0000 0000 0000 0000 000000
2017-05-14 07:42:53,0.04,1.58,0.00,24.44,27.14,30.31,14.32,48.66,1009.29,2029.98,2871.41,2675.04,3059.56,600.24,589.09,23.19,0000 0000 0000 0000 000000
2017-05-14 07:47:55,0.01,1.58,0.00,24.43,27.15,30.32,14.34,48.67,1009.26,2029.96,2870.77,2674.97,3058.99,600.03,588.78,23.24,0000 0000 0000 0000 000000
2017-05-14 07:52:57,0.05,1.58,0.00,24.43,27.15,30.32,14.26,48.68,1009.00,2029.96,2870.02,2674.36,3058.30,600.01,588.71,23.29,0000 0000 0000 0000 000000
2017-05-14 07:57:58,0.02,1.58,0.00,24.43,27.15,30.30,14.27,48.75,1008.88,2029.97,2869.26,2674.02,3057.99,599.92,588.60,23.34,0000 0000 0000 0000 000000
2017-05-14 08:02:59,0.03,1.58,0.00,24.41,27.15,30.32,14.33,48.79,1008.82,2029.98,2868.68,2673.98,3057.28,600.18,588.83,23.39,0000 0000 0000 0000 000000
2017-05-14 08:08:00,0.04,1.58,0.00,24.42,27.15,30.32,14.25,48.70,1008.85,2029.97,2867.83,2673.36,3056.87,599.80,588.39,23.44,0000 0000 0000 0000 000000
2017-05-14 08:13:01,0.03,1.59,0.00,24.41,27.15,30.33,14.34,48.68,1008.83,2029.97,2866.96,2673.00,3056.06,599.95,588.38,23.49,0000 0000 0000 0000 000000
2017-05-14 08:18:03,0.06,1.59,0.00,24.42,27.15,30.32,14.32,48.83,1008.80,2029.98,2866.10,2672.49,3055.53,599.92,588.50,23.55,0000 0000 0000 0000 000000
2017-05-14 08:23:04,0.03,1.59,0.00,24.41,27.15,30.33,14.22,48.76,1008.80,2029.98,2865.36,2672.01,3054.93,599.68,588.33,23.59,0000 0000 0000 0000 000000
2017-05-14 08:28:06,0.03,1.59,0.00,24.43,27.15,30.34,14.36,48.88,1008.75,2029.97,2864.61,2671.90,3054.08,600.20,588.71,23.64,0000 0000 0000 0000 000000
2017-05-14 08:33:07,0.03,1.59,0.00,24.42,27.15,30.33,14.38,48.83,1008.75,2029.96,2863.99,2671.23,3053.81,600.41,588.98,23.69,0000 0000 0000 0000 000000
2017-05-14 08:38:08,0.04,1.60,0.00,24.41,27.15,30.34,14.40,48.82,1008.74,2029.98,2863.22,2670.95,3053.09,600.23,588.97,23.75,0000 0000 0000 0000 000000
2017-05-14 08:43:09,0.02,1.60,0.00,24.40,27.15,30.34,14.31,48.77,1008.58,2029.98,2862.54,2670.88,3052.73,600.04,588.51,23.80,0000 0000 0000 0000 000000
2017-05-14 08:48:10,0.04,1.60,0.00,24.40,27.15,30.34,14.35,48.83,1008.40,2029.98,2861.86,2670.20,3052.03,600.34,588.76,23.85,0000 0000 0000 0000 000000
2017-05-14 08:53:11,0.02,1.60,0.00,24.41,27.15,30.33,14.33,48.76,1008.39,2029.99,2861.05,2670.00,3051.56,600.16,588.60,23.90,0000 0000 0000 0000 000000
2017-05-14 08:58:13,0.03,1.60,0.00,24.39,27.15,30.35,14.25,48.70,1008.36,2029.99,2860.42,2669.75,3051.02,599.83,588.34,23.95,0000 0000 0000 0000 000000
2017-05-14 09:03:14,0.04,1.61,0.00,24.43,27.15,30.33,14.22,48.73,1008.34,2029.98,2859.77,2669.06,3050.37,600.20,588.47,24.00,0000 0000 0000 0000 000000
2017-05-14 09:08:15,0.08,1.61,0.00,24.40,27.15,30.34,14.28,48.65,1008.37,2029.98,2858.23,2668.34,3049.31,599.74,588.13,24.05,0000 0000 0000 0000 000000
2017-05-14 09:13:16,0.02,1.61,0.00,24.37,27.15,30.35,14.34,48.72,1008.32,2029.99,2857.28,2668.00,3048.89,599.87,588.30,24.10,0000 0000 0000 0000 000000
2017-05-14 09:18:17,0.03,1.61,0.00,24.37,27.15,30.35,14.22,48.58,1008.32,2029.99,2856.71,2667.88,3048.12,599.80,588.31,24.15,0000 0000 0000 0000 000000
2017-05-14 09:23:18,0.04,1.61,0.00,24.36,27.15,30.35,14.35,48.66,1008.32,2029.98,2856.01,2667.20,3047.91,600.23,588.61,24.20,0000 0000 0000 0000 000000
2017-05-14 09:28:20,0.03,1.62,0.00,24.37,27.15,30.35,14.27,48.68,1008.28,2029.99,2855.34,2667.01,3047.18,599.88,588.43,24.25,0000 0000 0000 0000 000000
2017-05-14 09:33:21,0.01,1.62,0.00,24.36,27.15,30.34,14.29,48.62,1008.05,2029.99,2854.82,2666.94,3046.84,600.11,588.39,24.30,0000 0000 0000 0000 000000
2017-05-14 09:38:22,0.05,1.62,0.00,24.34,27.14,30.34,14.33,48.67,1007.91,2029.98,2854.04,2666.22,3046.05,600.22,588.50,24.35,0000 0000 0000 0000 000000
2017-05-14 09:43:24,0.02,1.62,0.00,24.34,27.13,30.34,14.39,48.73,1008.08,2029.99,2853.46,2666.01,3045.97,600.14,588.42,24.40,0000 0000 0000 0000 000000
2017-05-14 09:48:25,0.02,1.62,0.00,24.32,27.12,30.33,14.23,48.63,1007.88,2029.99,2852.98,2665.99,3045.28,599.72,587.87,24.45,0000 0000 0000 0000 000000
2017-05-14 09:53:26,0.03,1.62,0.00,24.31,27.12,30.34,14.33,48.67,1007.86,2029.99,2852.19,2665.65,3044.97,600.06,588.35,24.50,0000 0000 0000 0000 000000
2017-05-14 09:58:27,0.03,1.63,0.00,24.30,27.12,30.33,14.30,48.83,1007.83,2029.99,2851.71,2665.06,3044.36,600.03,588.22,24.55,0000 0000 0000 0000 000000
2017-05-14 10:03:28,0.01,1.63,0.00,24.31,27.12,30.34,14.25,48.67,1007.80,2029.99,2851.03,2665.00,3043.99,599.74,588.06,24.60,0000 0000 0000 0000 000000
2017-05-14 10:08:29,0.04,1.63,0.00,24.30,27.12,30.33,14.27,48.65,1007.66,2029.99,2850.31,2664.88,3043.36,599.97,588.18,24.65,0000 0000 0000 0000 000000
2017-05-14 10:13:31,0.02,1.63,0.00,24.30,27.12,30.32,14.32,48.71,1007.46,2029.99,2849.84,2664.18,3042.99,600.04,588.13,24.70,0000 0000 0000 0000 000000
2017-05-14 10:18:32,0.18,1.63,0.00,24.28,27.11,30.31,14.25,48.63,1007.42,2029.99,2847.17,2662.76,3041.04,599.84,587.95,24.75,0000 0000 0000 0000 000000
2017-05-14 10:23:33,0.05,1.64,0.00,24.28,27.10,30.32,14.32,48.60,1007.36,2029.99,2845.15,2661.76,3039.84,600.04,588.02,24.80,0000 0000 0000 0000 000000
2017-05-14 10:28:35,0.04,1.64,0.00,24.24,27.10,30.32,14.28,48.70,1007.37,2029.99,2844.64,2661.11,3039.11,599.94,588.09,24.85,0000 0000 0000 0000 000000
2017-05-14 10:33:36,0.02,1.65,0.00,24.22,27.10,30.31,14.26,48.66,1007.37,2029.99,2843.95,2660.99,3038.56,599.95,588.07,24.90,0000 0000 0000 0000 000000
2017-05-14 10:38:37,0.03,1.65,0.00,24.23,27.10,30.30,14.24,48.65,1007.34,2029.99,2843.15,2660.82,3038.02,599.68,587.83,24.95,0000 0000 0000 0000 000000
2017-05-14 10:43:38,0.04,1.65,0.00,24.22,27.08,30.30,14.24,48.69,1007.34,2030.00,2842.71,2660.14,3037.78,599.66,587.82,25.00,0000 0000 0000 0000 000000
2017-05-14 10:48:40,0.05,1.65,0.00,24.22,27.07,30.29,14.35,48.70,1007.34,2030.00,2841.66,2659.78,3036.84,600.16,588.34,25.05,0000 0000 0000 0000 000000
2017-05-14 10:53:41,0.05,1.65,0.00,24.22,27.07,30.30,14.27,48.73,1007.27,2030.01,2840.38,2659.05,3036.03,600.00,588.14,25.10,0000 0000 0000 0000 000000
2017-05-14 10:58:42,0.00,1.66,0.00,24.20,27.07,30.29,14.38,48.76,1007.16,2030.02,2839.93,2659.00,3035.90,600.30,588.40,25.15,0000 0000 0000 0000 000000
2017-05-14 11:03:44,0.05,1.66,0.00,24.20,27.06,30.28,14.28,48.75,1006.88,2030.00,2839.08,2658.42,3035.08,599.76,587.71,25.20,0000 0000 0000 0000 000000
2017-05-14 11:08:45,0.03,1.66,0.00,24.20,27.05,30.29,14.22,48.65,1006.88,2030.01,2838.44,2658.02,3034.64,599.92,587.79,25.25,0000 0000 0000 0000 000000
2017-05-14 11:13:47,0.02,1.66,0.00,24.16,27.05,30.28,14.34,48.77,1006.88,2030.04,2838.00,2657.99,3034.03,600.11,588.18,25.30,0000 0000 0000 0000 000000
2017-05-14 11:18:48,0.03,1.66,0.00,24.17,27.05,30.27,14.20,48.73,1006.86,2030.05,2837.26,2657.72,3033.86,600.09,587.99,25.35,0000 0000 0000 0000 000000
2017-05-14 11:23:49,0.05,1.66,0.00,24.15,27.03,30.26,14.20,48.62,1006.85,2030.15,2836.90,2657.07,3033.11,599.70,587.72,25.40,0000 0000 0000 0000 000000
2017-05-14 11:28:50,0.02,1.67,0.00,24.14,27.02,30.26,14.26,48.74,1006.85,2030.15,2836.08,2657.00,3032.98,599.74,587.72,25.45,0000 0000 0000 0000 000000
2017-05-14 11:33:52,0.03,1.67,0.00,24.15,27.02,30.25,14.27,48.77,1006.82,2030.29,2835.81,2656.97,3032.43,599.92,587.84,25.50,0000 0000 0000 0000 000000
2017-05-14 11:38:53,0.06,1.67,0.00,24.18,27.02,30.25,14.29,48.68,1006.84,2030.47,2835.05,2656.34,3032.02,599.84,587.89,25.55,0000 0000 0000 0000 000000
2017-05-14 11:43:54,0.05,1.67,0.00,24.16,27.00,30.25,14.31,48.77,1006.81,2030.54,2834.53,2656.00,3031.62,600.08,588.03,25.60,0000 0000 0000 0000 000000
2017-05-14 11:48:56,0.03,1.67,0.00,24.16,27.00,30.25,14.23,48.73,1006.81,2030.80,2834.00,2655.87,3031.01,599.93,587.94,25.65,0000 0000 0000 0000 000000
2017-05-14 11:53:57,0.05,1.68,0.00,24.08,27.00,30.24,14.32,48.77,1006.58,2030.90,2833.33,2655.17,3030.80,600.09,588.12,25.70,0000 0000 0000 0000 000000
2017-05-14 11:58:58,0.02,1.68,0.00,24.20,26.98,30.23,14.27,48.63,1006.46,2030.92,2832.90,2655.00,3030.05,599.93,587.61,25.75,0000 0000 0000 0000 000000
2017-05-14 12:04:00,0.05,1.68,0.00,24.12,26.97,30.22,14.28,48.84,1006.38,2030.95,2832.09,2654.59,3029.61,600.12,587.93,25.80,0000 0000 0000 0000 000000
2017-05-14 12:09:01,0.03,1.68,0.00,24.07,26.97,30.21,14.33,48.83,1006.36,2030.97,2831.71,2654.06,3029.03,600.30,588.24,25.85,0000 0000 0000 0000 000000
2017-05-14 12:14:02,0.01,1.68,0.00,24.05,26.96,30.20,14.30,48.81,1006.36,2030.97,2831.02,2654.00,3028.92,600.21,588.19,25.90,0000 0000 0000 0000 000000
2017-05-14 12:19:03,0.03,1.68,0.00,24.14,26.95,30.20,14.37,48.77,1006.34,2030.98,2830.60,2653.97,3028.18,600.17,587.76,25.95,0000 0000 0000 0000 000000
2017-05-14 12:24:04,0.03,1.69,0.00,24.16,26.95,30.20,14.26,48.86,1006.24,2030.99,2830.01,2653.35,3027.99,599.94,587.48,26.00,0000 0000 0000 0000 000000
2017-05-14 12:29:05,0.02,1.69,0.00,24.10,26.94,30.20,14.30,48.81,1006.14,2030.99,2829.67,2653.05,3027.75,600.03,587.72,26.05,0000 0000 0000 0000 000000
2017-05-14 12:34:07,0.02,1.69,0.00,24.13,26.92,30.20,14.33,48.80,1006.02,2030.99,2829.02,2652.98,3027.03,600.17,587.67,26.10,0000 0000 0000 0000 000000
2017-05-14 12:39:08,0.05,1.69,0.00,24.09,26.92,30.19,14.30,48.78,1005.91,2030.99,2828.31,2652.53,3026.62,599.64,587.32,26.15,0000 0000 0000 0000 000000
2017-05-14 12:44:09,0.01,1.69,0.00,24.07,26.92,30.18,14.34,48.77,1005.89,2030.99,2827.97,2652.03,3026.03,599.87,587.40,26.20,0000 0000 0000 0000 000000
2017-05-14 12:49:11,0.01,1.69,0.00,24.09,26.90,30.17,14.26,48.77,1005.88,2030.99,2827.25,2652.00,3025.97,599.86,587.47,26.25,0000 0000 0000 0000 000000
2017-05-14 12:54:12,0.04,1.70,0.00,24.14,26.90,30.16,14.28,48.76,1005.87,2031.00,2826.61,2651.72,3025.17,600.14,587.62,26.30,0000 0000 0000 0000 000000